CAPE
0 0 0 0 0 0 0 0 0 0 0 0 0 0 0 0 0 0 0 0 0 0 0 0 0 0 0 0 0 0 0 0 0 0 0 0 0 0 0 0 0 0 0 0 0 0 0
0 0 0 0 0 0 0 0 0 0 0 0 0 0 0 0 0 0 0 0 0 0 0 0 0 0 0 0 0 0 0 0 0 0 0 0 0 0 0 0 0 0 0 0 0 0 0
2 1 0 0 0 1 1 0 0 0 0 0 0 0 0 0 0 0 0 0 0 0 0 0 0 0 0 0 0 0 0 0 0 0 0 0 0 0 0 0 0 0 0 0 0 0 0
0 9 10 7 5 2 0 0 0 0 0 0 0 0 0 0 0 0 0 0 0 0 0 0 0 0 0 0 0 0 0 0 0 0 0 0 0 0 0 0 0 0 0 0 0 0 0
0 0 6 12 14 11 6 2 0 0 0 0 0 0 0 0 0 0 0 0 0 0 0 0 0 0 0 0 0 0 0 0 0 0 0 0 0 0 0 0 0 0 0 0 0 0 0
0 0 2 1 13 11 7 5 2 0 0 0 0 0 0 0 0 0 0 0 0 0 0 0 0 0 0 0 0 0 0 0 0 0 0 0 0 0 0 0 0 0 0 0 0 0 0
0 0 0 0 0 0 0 5 3 0 0 0 0 0 0 0 0 0 0 0 0 0 0 0 0 0 0 0 0 0 0 0 0 0 0 0 0 0 0 0 0 0 0 0 0 0 0
0 0 0 0 0 0 0 0 0 0 0 0 0 0 0 0 0 0 0 0 0 0 0 0 0 0 0 0 0 0 0 0 0 0 0 0 0 0 0 0 0 0 0 0 0 0 0
0 0 0 0 0 0 0 3 2 1 0 0 0 0 0 0 0 0 0 0 0 0 0 0 0 0 0 0 0 0 0 0 0 0 0 0 0 0 0 0 0 0 0 0 0 0 0
0 0 0 0 0 0 0 0 8 3 2 0 0 0 0 0 0 0 0 0 0 0 0 0 0 0 0 0 0 0 0 0 0 0 0 0 0 0 0 0 0 0 0 0 0 0 0
0 0 0 0 0 0 0 0 0 0 4 0 0 0 0 0 0 0 0 0 0 0 0 0 0 0 0 0 0 0 0 0 0 0 0 0 0 0 0 0 0 0 0 0 0 0 0
0 0 0 0 0 0 0 0 0 0 3 0 0 0 0 0 0 0 0 0 0 0 0 0 0 0 0 0 0 0 0 0 0 0 0 0 0 0 0 0 0 0 0 0 0 0 0
3 0 0 0 0 0 0 0 0 0 0 5 1 0 0 0 0 0 0 0 0 0 0 0 0 0 0 0 0 0 0 0 0 0 0 0 0 0 0 0 0 0 0 0 1 7 0
9 0 0 0 0 0 0 0 0 0 0 0 0 0 0 0 0 0 0 0 0 0 0 0 0 0 0 0 0 0 0 0 0 0 0 0 0 0 0 0 0 0 0 12 2 0 0
1 0 0 0 0 0 0 0 0 0 0 8 0 0 0 0 0 0 0 0 0 0 0 0 0 0 0 0 0 0 0 0 0 0 0 0 0 0 0 0 0 0 0 0 0 0 0
0 0 0 0 0 0 0 0 0 0 4 0 0 0 0 0 0 0 0 0 0 0 0 0 0 0 0 0 0 0 0 0 0 0 0 0 0 0 0 0 0 0 0 0 0 0 0
0 0 0 0 0 0 0 0 0 3 4 0 0 0 0 0 0 0 0 0 0 0 0 0 0 0 0 0 0 0 0 0 0 0 0 0 0 0 0 0 0 0 0 0 0 0 0
0 0 0 0 0 0 0 0 1 9 0 0 0 0 0 0 0 0 0 0 0 0 0 0 0 0 0 0 0 0 0 0 0 0 0 0 0 0 0 0 0 0 0 0 0 0 0
0 0 0 0 0 0 0 0 3 0 0 0 0 0 0 0 0 0 0 0 0 0 0 0 0 0 0 0 0 0 0 0 0 0 0 0 0 0 0 0 0 0 0 0 0 0 0
3 4 0 0 0 0 0 40 0 0 0 0 0 0 0 0 0 0 0 0 0 0 0 0 0 0 0 0 0 0 0 0 0 0 0 0 0 0 0 0 0 0 0 0 0 1 0
2 4 0 1 0 0 0 21 2 2 0 0 1 2 0 0 1 1 0 0 1 0 0 0 0 0 0 0 0 0 0 0 0 0 0 0 0 0 0 0 0 0 0 0 0 0 0
1 3 0 0 1 0 0 0 0 0 0 0 0 0 0 1 1 0 1 0 0 0 0 0 0 0 0 0 0 0 0 0 0 0 0 0 0 0 0 0 0 0 0 0 0 0 0
1 0 1 2 1 0 0 0 0 0 0 0 1 1 0 0 1 0 0 0 0 0 0 0 0 0 0 0 0 0 0 0 0 0 0 0 0 0 0 0 0 0 0 0 0 0 0
0 0 21 34 18 5 0 0 0 0 0 0 0 0 0 0 0 0 0 0 0 0 0 0 0 0 0 0 0 0 0 0 0 0 0 0 0 0 0 0 0 0 0 0 0 0 0
0 0 0 1 4 6 12 27 4 1 0 0 0 0 0 0 0 1 2 1 0 1 0 0 0 0 0 0 0 0 0 0 0 0 0 0 0 0 0 0 0 0 0 0 0 1 0
0 0 3 4 1 0 0 8 31 18 4 0 0 0 2 0 0 0 3 0 0 0 0 0 0 0 0 0 0 0 0 0 0 0 0 0 0 0 0 0 0 0 0 0 1 0 0
16 17 14 6 3 1 4 19 81 33 1 0 0 0 0 1 0 1 0 0 0 0 0 0 0 0 0 0 0 0 0 0 0 0 0 0 0 0 0 0 0 0 0 0 0 0 0
16 19 20 8 7 2 0 0 4 8 1 0 0 0 0 0 0 1 0 0 0 0 0 0 0 0 0 0 0 0 0 0 0 0 0 0 0 0 0 0 0 1 0 0 0 0 0
21 10 0 2 2 14 3 0 0 0 31 0 0 0 1 2 0 0 0 0 0 0 0 0 0 0 0 0 0 0 0 0 0 0 0 0 0 0 0 0 0 0 0 0 0 0 0
CIN
-0 -0 -0 -0 -0 -0 -0 -0 -0 -0 -0 -0 -0 -0 -0 -0 -0 -0 -0 -0 -0 -0 -0 -0 -0 -0 -0 -0 -0 -0 -0 -0 -0 -0 -0 -0 -0 -0 -0 -0 -0 -0 -0 -0 -0 -0 -0
-0 -0 -0 -0 -0 -0 -0 -0 -0 -0 -0 -0 -0 -0 -0 -0 -0 -0 -0 -0 -0 -0 -0 -0 -0 -0 -0 -0 -0 -0 -0 -0 -0 -0 -0 -0 -0 -0 -0 -0 -0 -0 -0 -0 -0 -0 -0
-2 -9 -5 -1 -0 -0 -0 -0 -0 -0 -0 -0 -0 -0 -0 -0 -0 -0 -0 -0 -0 -0 -0 -0 -0 -0 -0 -0 -0 -0 -0 -0 -0 -0 -0 -0 -0 -0 -0 -0 -0 -0 -0 -0 -0 -0 -0
-0 -6 -8 -6 -6 -5 -6 -0 -0 -0 -0 -0 -0 -0 -0 -0 -0 -0 -0 -0 -0 -0 -0 -0 -0 -0 -0 -0 -0 -0 -0 -0 -0 -0 -0 -0 -0 -0 -0 -0 -0 -0 -0 -0 -0 -0 -0
-0 -0 -1 -4 -4 -5 -11 -15 -0 -0 -0 -0 -0 -0 -0 -0 -0 -0 -0 -0 -0 -0 -0 -0 -0 -0 -0 -0 -0 -0 -0 -0 -0 -0 -0 -0 -0 -0 -0 -0 -0 -0 -0 -0 -0 -0 -0
-0 -0 -1 -1 -3 -10 -10 -13 -10 -0 -0 -0 -0 -0 -0 -0 -0 -0 -0 -0 -0 -0 -0 -0 -0 -0 -0 -0 -0 -0 -0 -0 -0 -0 -0 -0 -0 -0 -0 -0 -0 -0 -0 -0 -0 -0 -0
-0 -0 -0 -0 -0 -0 -0 -9 -13 -0 -0 -0 -0 -0 -0 -0 -0 -0 -0 -0 -0 -0 -0 -0 -0 -0 -0 -0 -0 -0 -0 -0 -0 -0 -0 -0 -0 -0 -0 -0 -0 -0 -0 -0 -0 -0 -0
-0 -0 -0 -0 -0 -0 -0 -0 -0 -0 -0 -0 -0 -0 -0 -0 -0 -0 -0 -0 -0 -0 -0 -0 -0 -0 -0 -0 -0 -0 -0 -0 -0 -0 -0 -0 -0 -0 -0 -0 -0 -0 -0 -0 -0 -0 -0
-0 -0 -0 -0 -0 -0 -0 -0 -1 -2 -0 -0 -0 -0 -0 -0 -0 -0 -0 -0 -0 -0 -0 -0 -0 -0 -0 -0 -0 -0 -0 -0 -0 -0 -0 -0 -0 -0 -0 -0 -0 -0 -0 -0 -0 -0 -0
-0 -0 -0 -0 -0 -0 -0 -0 -3 -4 -6 -0 -0 -0 -0 -0 -0 -0 -0 -0 -0 -0 -0 -0 -0 -0 -0 -0 -0 -0 -0 -0 -0 -0 -0 -0 -0 -0 -0 -0 -0 -0 -0 -0 -0 -0 -0
-0 -0 -0 -0 -0 -0 -0 -0 -0 -0 -6 -12 -0 -0 -0 -0 -0 -0 -0 -0 -0 -0 -0 -0 -0 -0 -0 -0 -0 -0 -0 -0 -0 -0 -0 -0 -0 -0 -0 -0 -0 -0 -0 -0 -0 -0 -0
-0 -0 -0 -0 -0 -0 -0 -0 -0 -0 -1 -2 -0 -0 -0 -0 -0 -0 -0 -0 -0 -0 -0 -0 -0 -0 -0 -0 -0 -0 -0 -0 -0 -0 -0 -0 -0 -0 -0 -0 -0 -0 -0 -0 -0 -0 -0
-11 -0 -0 -0 -0 -0 -0 -0 -0 -0 -0 -6 -17 -0 -0 -0 -0 -0 -0 -0 -0 -0 -0 -0 -0 -0 -0 -0 -0 -0 -0 -0 -0 -0 -0 -0 -0 -0 -0 -0 -0 -0 -0 -0 -5 -3 -0
-5 -0 -0 -0 -0 -0 -0 -0 -0 -0 -0 -0 -0 -0 -0 -0 -0 -0 -0 -0 -0 -0 -0 -0 -0 -0 -0 -0 -0 -0 -0 -0 -0 -0 -0 -0 -0 -0 -0 -0 -0 -0 -0 -14 -3 -0 -0
-0 -0 -0 -0 -0 -0 -0 -0 -0 -0 -0 -3 -0 -0 -0 -0 -0 -0 -0 -0 -0 -0 -0 -0 -0 -0 -0 -0 -0 -0 -0 -0 -0 -0 -0 -0 -0 -0 -0 -0 -0 -0 -0 -0 -0 -0 -0
-0 -0 -0 -0 -0 -0 -0 -0 -0 -0 -0 -0 -0 -0 -0 -0 -0 -0 -0 -0 -0 -0 -0 -0 -0 -0 -0 -0 -0 -0 -0 -0 -0 -0 -0 -0 -0 -0 -0 -0 -0 -0 -0 -0 -0 -0 -0
-0 -0 -0 -0 -0 -0 -0 -0 -0 -0 -0 -0 -0 -0 -0 -0 -0 -0 -0 -0 -0 -0 -0 -0 -0 -0 -0 -0 -0 -0 -0 -0 -0 -0 -0 -0 -0 -0 -0 -0 -0 -0 -0 -0 -0 -0 -0
-0 -0 -0 -0 -0 -0 -0 -0 -0 -2 -0 -0 -0 -3 -0 -0 -0 -0 -0 -0 -0 -0 -0 -0 -0 -0 -0 -0 -0 -0 -0 -0 -0 -0 -0 -0 -0 -0 -0 -0 -0 -0 -0 -0 -0 -0 -0
-0 -0 -0 -0 -0 -0 -0 -0 -0 -0 -0 -0 -0 -0 -0 -0 -0 -0 -0 -0 -0 -0 -0 -0 -0 -0 -0 -0 -0 -0 -0 -0 -0 -0 -0 -0 -0 -0 -0 -0 -0 -0 -0 -0 -0 -0 -0
-0 -1 -0 -0 -0 -0 -0 -12 -0 -0 -0 -0 -0 -0 -0 -0 -0 -0 -0 -0 -0 -0 -0 -0 -0 -0 -0 -0 -0 -0 -0 -0 -0 -0 -0 -0 -0 -0 -0 -0 -0 -0 -0 -0 -0 -1 -0
-0 -3 -0 -0 -0 -0 -0 -2 -0 -0 -0 -0 -0 -0 -0 -0 -0 -0 -0 -0 -0 -0 -0 -0 -0 -0 -0 -0 -0 -0 -0 -0 -0 -0 -0 -0 -0 -0 -0 -0 -0 -0 -0 -0 -0 -0 -0
-0 -0 -0 -0 -24 -0 -0 -0 -0 -0 -0 -0 -0 -0 -0 -0 -0 -0 -0 -0 -0 -0 -0 -0 -0 -0 -0 -0 -0 -0 -0 -0 -0 -0 -0 -0 -0 -0 -0 -0 -0 -0 -0 -0 -0 -0 -0
-0 -0 -0 -2 -12 -0 -0 -0 -0 -0 -0 -0 -0 -0 -0 -0 -0 -0 -0 -0 -0 -0 -0 -0 -0 -0 -0 -0 -0 -0 -0 -0 -0 -0 -0 -0 -0 -0 -0 -0 -0 -0 -0 -0 -0 -0 -0
-0 -0 -0 -0 -0 -0 -0 -0 -0 -0 -0 -0 -0 -0 -0 -0 -0 -0 -0 -0 -0 -0 -0 -0 -0 -0 -0 -0 -0 -0 -0 -0 -0 -0 -0 -0 -0 -0 -0 -0 -0 -0 -0 -0 -0 -0 -0
-0 -0 -0 -0 -2 -1 -0 -0 -16 -13 -0 -0 -0 -0 -0 -0 -0 -0 -0 -0 -0 -0 -0 -0 -0 -0 -0 -0 -0 -0 -0 -0 -0 -0 -0 -0 -0 -0 -0 -0 -0 -0 -0 -0 -0 -68 -5
-0 -0 -0 -0 -0 -0 -0 -23 -0 -0 -2 -0 -0 -0 -0 -0 -0 -0 -0 -0 -0 -0 -0 -0 -0 -0 -0 -0 -0 -0 -0 -0 -0 -0 -0 -0 -0 -0 -0 -0 -0 -0 -0 -0 -9 -0 -0
-4 -2 -7 -10 -0 -0 -15 -36 -33 -4 -0 -0 -0 -0 -0 -0 -0 -0 -0 -0 -0 -0 -0 -0 -0 -0 -0 -0 -0 -0 -0 -0 -0 -0 -0 -0 -0 -0 -0 -0 -0 -0 -0 -0 -0 -0 -0
-1 -2 -0 -8 -7 -0 -0 -0 -4 -0 -0 -0 -0 -0 -0 -0 -0 -0 -0 -0 -0 -0 -0 -0 -0 -0 -0 -0 -0 -0 -0 -0 -0 -0 -0 -0 -0 -0 -0 -0 -0 -17 -0 -0 -0 -0 -0
-1 -0 -0 -0 -0 -10 -17 -0 -0 -0 -3 -0 -0 -0 -0 -0 -0 -0 -0 -0 -0 -0 -0 -0 -0 -0 -0 -0 -0 -0 -0 -0 -0 -0 -0 -0 -0 -0 -0 -0 -0 -0 -0 -0 -0 -0 -0
Wind_Speed
21 21 22 23 23 24 25 26 26 27 28 29 30 31 32 34 35 36 37 37 37 35 34 32 29 26 21 20 17 15 16 15 14 11 9 10 10 12 15 16 17 16 16 17 20 23 21
25 25 25 25 26 26 27 28 28 28 29 30 31 33 34 36 37 38 39 39 38 36 33 29 26 22 20 23 17 14 15 16 15 12 11 11 15 15 19 19 18 19 25 25 27 29 27
28 28 28 27 27 28 28 28 28 28 30 31 32 33 35 37 39 40 41 41 41 37 30 24 22 18 19 18 18 15 13 17 14 12 13 12 18 18 19 22 23 25 29 32 29 29 30
28 26 23 21 21 22 23 24 25 26 29 30 32 34 36 38 39 41 43 43 43 36 23 18 19 18 19 16 19 19 20 19 15 11 13 16 18 21 20 22 27 30 30 31 28 28 25
24 23 24 23 20 19 21 23 24 25 27 29 30 33 35 38 40 41 43 44 36 25 17 16 17 18 19 20 16 19 20 18 18 15 14 17 18 20 22 26 30 26 31 32 35 24 27
27 27 26 24 23 19 20 22 24 24 26 28 30 32 35 38 40 41 42 39 25 20 19 18 18 20 17 20 20 21 19 16 17 16 19 17 20 23 24 25 34 32 32 31 31 28 38
26 26 27 26 26 26 21 21 23 23 24 26 28 31 34 36 38 39 37 27 28 21 24 21 20 21 23 25 21 18 17 18 19 19 22 20 24 27 25 24 27 29 33 37 33 31 33
26 27 26 26 26 24 21 20 21 21 23 25 27 30 33 36 38 35 28 26 24 24 28 26 22 22 23 23 24 23 14 17 20 25 22 25 29 24 23 25 27 29 33 34 32 24 27
26 26 27 28 29 28 28 24 23 23 24 25 26 29 32 35 36 25 26 26 25 23 28 27 20 21 19 17 21 21 18 20 23 26 24 26 24 23 25 26 29 29 30 30 31 29 28
24 25 26 28 28 28 29 28 24 23 23 23 23 27 30 36 25 29 25 27 25 23 34 29 22 19 17 17 20 18 19 19 22 26 24 24 22 23 25 29 24 33 22 23 27 29 35
23 25 27 27 28 28 28 28 27 22 20 19 20 23 27 27 27 26 25 28 25 24 42 23 23 16 18 20 20 22 18 19 23 25 25 24 27 28 31 26 24 26 21 21 24 27 30
21 23 25 27 27 28 28 28 27 22 20 17 17 19 23 22 22 21 24 25 23 32 42 27 23 23 21 22 22 23 22 21 21 25 25 25 21 23 23 23 22 25 25 25 26 28 33
20 21 24 25 27 29 30 29 27 24 20 17 14 17 19 19 24 21 22 23 32 36 28 30 27 24 23 24 24 24 25 27 28 31 30 28 26 20 25 26 23 27 27 32 31 27 29
20 22 24 26 29 31 31 31 30 25 21 16 14 15 18 16 16 17 20 25 38 30 29 25 24 24 27 25 25 25 22 26 26 25 28 32 33 25 26 23 25 24 23 25 33 33 34
21 24 27 30 33 35 35 33 30 26 23 15 16 21 24 19 12 15 22 34 35 30 29 28 27 33 31 25 23 22 24 25 23 23 28 31 27 21 24 24 21 25 24 27 30 38 38
25 27 29 32 35 39 38 34 31 25 19 10 19 23 25 16 9 16 27 37 32 28 28 27 34 28 33 27 26 24 23 20 20 20 19 22 29 22 23 22 21 24 29 30 28 34 37
26 28 32 35 38 40 41 37 32 24 13 9 20 27 21 14 12 22 36 33 31 26 24 27 31 30 27 26 23 23 24 22 20 20 19 20 21 26 27 25 32 34 32 28 34 36 40
29 31 34 37 40 42 42 35 30 20 8 12 20 33 19 14 26 29 35 30 27 27 23 25 26 26 25 22 23 23 25 21 20 17 21 21 23 33 33 28 26 27 29 30 35 38 40
31 34 36 38 41 43 42 32 25 11 7 15 26 29 20 16 38 36 32 33 29 28 26 25 24 21 20 21 28 22 18 15 16 19 18 20 24 35 38 24 25 27 30 32 32 31 36
33 35 36 37 38 40 41 27 13 6 8 15 23 32 26 22 27 33 35 35 30 26 26 24 20 19 22 23 22 20 16 16 17 18 17 18 22 26 35 36 34 38 36 32 31 36 36
33 32 33 33 31 33 31 21 11 11 13 16 24 29 25 33 34 30 28 26 27 29 22 19 23 22 21 22 16 17 15 16 18 18 20 21 27 26 29 33 35 35 35 33 32 31 34
34 33 30 27 26 25 22 18 15 14 15 21 28 30 22 28 26 26 26 29 27 24 21 21 23 19 14 14 15 14 10 15 18 20 23 25 30 28 34 31 31 34 35 31 30 32 34
35 36 27 26 25 25 20 18 15 13 16 22 21 22 26 28 28 28 30 28 24 16 21 20 15 14 13 12 9 9 12 14 16 19 22 24 25 28 31 28 30 29 22 24 26 27 32
32 33 30 27 27 24 21 20 18 15 18 20 21 21 27 37 29 30 26 21 21 18 20 12 10 9 9 4 8 12 15 17 16 17 15 20 22 22 28 28 27 22 24 25 28 35 35
32 31 30 29 28 29 30 26 20 17 17 21 20 22 27 34 28 26 22 20 14 13 11 10 9 6 0 8 11 14 16 17 19 18 16 13 16 24 25 26 24 25 21 32 33 34 26
29 28 28 29 30 31 34 32 24 17 14 18 18 17 20 26 27 23 17 14 13 11 10 12 2 0 6 10 12 14 16 17 19 20 21 14 13 16 19 23 24 20 28 32 30 24 32
27 27 27 28 29 31 35 37 37 13 11 13 16 16 19 22 22 14 15 12 13 9 9 6 5 8 9 10 13 15 16 15 19 18 19 21 19 14 12 19 20 17 26 28 22 28 29
26 25 25 27 28 29 30 31 24 4 4 16 19 17 20 20 22 15 9 7 11 8 7 5 5 12 10 11 12 12 13 13 17 16 17 18 23 18 14 14 21 11 25 26 28 24 25
23 26 27 27 27 27 26 24 19 18 18 17 20 18 20 22 21 19 15 21 15 9 8 8 9 5 5 8 8 9 12 13 15 18 16 21 17 21 12 9 11 25 28 26 25 23 18
Wind_Direction
288 293 297 301 302 303 311 316 322 327 329 331 330 328 327 326 325 324 322 321 322 327 330 335 340 342 351 349 346 355 359 1 1 2 356 352 346 344 337 340 335 320 321 320 318 318 319
290 295 297 299 303 307 313 319 325 329 332 333 332 330 327 326 324 321 319 318 322 328 332 335 340 347 349 340 354 4 1 359 351 350 342 340 340 332 330 325 321 326 322 318 316 312 311
306 307 310 320 322 322 326 329 331 334 335 336 335 333 331 329 326 322 319 318 319 325 333 339 344 350 344 340 346 356 359 349 352 350 337 334 331 329 333 327 324 323 317 314 313 312 311
318 323 336 342 345 345 346 345 343 342 338 337 335 334 333 332 329 327 322 318 317 324 337 345 348 349 339 349 342 340 341 339 343 343 337 331 330 323 322 322 319 317 315 313 318 319 318
328 331 332 335 338 341 343 343 342 342 341 341 340 338 336 333 331 330 326 322 330 345 356 356 351 348 337 343 347 344 345 341 338 343 340 333 328 322 322 317 314 315 308 310 312 316 318
324 324 327 330 332 335 336 337 338 338 339 338 338 337 336 334 331 330 327 327 344 352 353 352 344 340 340 337 337 333 341 344 336 337 335 332 325 316 318 312 306 310 309 310 309 310 309
324 325 326 327 327 326 330 332 334 336 337 338 339 338 337 336 334 332 337 348 347 343 341 331 329 326 321 324 329 325 329 330 330 325 317 321 312 308 307 307 308 309 307 306 308 310 306
323 324 326 327 328 329 330 330 331 333 335 337 339 338 337 336 333 335 347 349 349 340 331 327 324 322 319 328 327 333 344 325 324 315 320 315 308 309 313 311 309 308 307 306 309 312 309
321 323 323 322 322 323 323 324 325 327 330 334 335 336 337 334 332 346 347 346 345 343 328 326 331 331 335 336 328 330 338 330 321 318 316 310 317 328 316 312 309 306 307 306 306 313 310
321 323 324 322 321 322 323 324 323 325 328 330 334 335 336 332 343 339 340 342 345 347 323 323 329 337 341 340 327 340 341 332 327 323 324 319 329 320 318 317 308 305 306 306 310 313 308
320 320 321 324 322 323 325 326 326 324 327 330 333 337 338 342 337 338 339 340 345 341 315 331 330 352 341 329 332 332 347 334 322 321 324 319 324 324 320 325 328 318 323 313 313 310 310
319 320 322 322 324 325 326 327 328 328 325 325 330 334 338 342 340 340 343 344 343 322 311 322 331 328 326 329 328 330 333 342 334 322 323 321 329 327 322 327 330 325 319 315 310 306 297
316 318 321 322 322 324 324 325 325 326 322 321 323 329 333 340 332 345 344 340 320 310 328 321 322 325 322 321 322 324 323 323 319 317 316 323 328 331 335 320 325 324 316 310 305 299 295
313 316 320 320 320 322 323 323 323 321 320 316 316 325 326 329 340 341 338 324 307 317 316 326 325 321 314 317 318 321 319 316 328 324 317 316 312 327 332 333 324 325 318 302 299 298 298
316 316 314 316 316 316 317 319 319 316 317 311 319 316 316 322 319 333 316 302 307 312 315 313 314 309 308 311 312 315 317 316 324 329 316 317 313 321 334 340 332 321 314 314 302 295 294
320 319 318 317 316 316 316 317 316 312 308 298 309 312 310 323 322 317 302 299 304 311 311 311 304 309 307 306 307 308 310 323 321 329 330 322 313 317 326 337 337 328 316 308 302 297 290
323 322 319 320 318 317 316 316 314 308 295 287 307 309 315 325 319 302 295 297 302 307 306 303 300 302 306 304 306 308 314 320 314 323 332 326 316 311 320 327 317 316 312 309 301 291 287
323 323 322 320 319 319 318 318 315 306 279 294 302 300 316 313 297 299 293 300 301 304 305 302 307 298 293 295 297 303 307 309 315 323 321 324 319 308 311 323 321 314 321 316 298 293 287
321 321 321 321 322 322 321 317 317 301 260 301 299 302 311 298 294 292 300 298 295 298 296 296 295 298 301 301 302 305 309 315 315 319 322 325 320 312 312 328 330 323 321 320 308 299 290
319 320 321 323 324 326 327 319 317 291 305 308 304 303 305 295 298 296 294 292 287 299 301 302 298 294 296 300 301 298 307 315 317 322 325 330 320 316 310 313 317 314 313 311 305 296 294
321 321 322 326 330 335 342 345 341 328 320 314 304 302 301 298 298 290 298 296 288 295 291 292 294 289 289 295 293 294 305 314 320 322 326 325 316 317 316 316 318 315 314 309 301 296 291
327 323 323 326 330 335 342 346 336 328 322 313 301 305 308 304 304 296 295 295 284 285 290 279 292 282 281 292 289 286 309 314 318 324 325 325 319 322 319 322 322 318 314 312 307 303 296
328 326 321 322 324 327 329 333 331 325 323 316 314 312 307 300 299 296 294 293 289 286 292 289 278 276 277 288 307 330 323 326 327 330 333 330 330 329 326 334 332 327 335 331 323 317 306
326 328 326 321 319 318 317 318 319 313 314 318 315 312 305 298 292 292 296 291 284 274 282 280 279 269 291 352 335 327 324 324 330 335 354 344 338 336 331 336 330 346 341 332 325 311 307
322 323 323 326 326 324 319 311 303 304 306 310 314 305 306 299 294 295 292 288 284 278 273 271 271 278 329 316 313 315 318 329 334 344 352 353 343 333 333 334 328 336 351 335 324 302 324
323 324 325 325 324 323 320 314 304 287 287 306 310 315 314 307 300 301 283 275 270 241 265 273 324 106 306 307 308 303 314 326 327 339 1 2 346 341 336 332 330 344 335 323 307 320 318
320 323 325 326 327 328 328 321 306 254 275 299 313 312 315 313 316 302 289 260 258 252 249 250 259 285 297 296 299 302 312 336 329 336 346 351 347 334 327 327 331 344 334 309 327 313 307
319 322 325 327 328 331 333 338 346 1 313 302 307 301 302 310 311 309 293 281 249 221 226 221 265 281 288 285 296 311 322 330 337 345 349 347 343 346 346 328 322 353 329 327 295 276 303
321 320 320 321 323 327 331 335 334 317 316 317 313 299 294 302 298 302 278 276 274 246 232 237 265 289 287 297 308 332 327 335 339 339 343 341 347 349 349 339 335 323 295 280 280 275 246